User: anonymous   Login
Location: Cluny
(50.9333°N, 112.8167°W)
Time: 07:33:10
(UTC-07:00)
Language:

Hamsat - Orbit

View from above orbital plane
View from above orbital plane
View from above satellite
View from above satellite

Ground track
Ground track

The orbit data is extracted from the following two-line orbital elements,

1 28650U 05017B   16339.48790461  .00000442  00000-0  53004-4 0  9991
2 28650  97.6277 314.7401 0024884  57.2552 303.1059 14.88501650627209
Epoch (UTC): 04 December 2016 11:42:34
Eccentricity: 0.0024884
inclination: 97.6277°
perigee height: 585 km
apogee height: 620 km
right ascension of ascending node: 314.7401°
argument of perigee: 57.2552°
revolutions per day: 14.88501650
mean anomaly at epoch: 303.1059°
orbit number at epoch: 62720

The dashed part of the orbit path shows where the satellite is in the earth's shadow,  

DLR